Find NNS 30090

NORAD ID: 2176 Int'l Des: 1966-041 Owner: NAVAIR Country: US operational
LEOCIRCULARRETROGRADE

現在のビュー

3D地球を読み込み中...

About NNS 30090

NNS 30090 (NORAD 2176) is a satellite by NAVAIR of US. It operates in LEO, CIRCULAR, RETROGRADE orbit

次回通過

Passes for default location (London). Set your location on the main map for personalized predictions.

高度履歴

Loading altitude history...

軌道要素

1 02176U 66041A 26164.25667289 .00000208 00000-0 12209-3 0 9994
2 02176 90.2313 83.1179 0062884 118.3375 242.4169 14.04329971 66887
Epoch: Jun 13, 2026 • Age: 5 hours

現在のステータス

高度 931.9 km
速度 7.36 km/s
衛星直下点 -34.12°S, 14.59°E
タイプ other

Most Searched